FW3232 Weather Reports


Display with metric or nautical units.
time (UTC)temp
F
wind
direction
speed
MPH
gust
MPH
rain 1hr
in
rain 24hr
in
rain mn
in
humidity
%
barometer
mb
20260508104913 43 327 0.0 2.0 0.00 0.00 0.00 99 1013.8
20260508104412 43 344 0.0 1.0 0.00 0.00 0.00 99 1013.8
20260508103913 43 340 0.0 2.0 0.00 0.00 0.00 99 1013.8
20260508103412 43 352 1.0 2.0 0.00 0.00 0.00 99 1013.8
20260508102913 43 0 0.0 1.0 0.00 0.00 0.00 99 1013.7
20260508102413 43 0 0.0 2.0 0.00 0.00 0.00 99 1013.7
20260508101911 43 325 0.0 2.0 0.00 0.00 0.00 99 1013.6
20260508101414 43 350 1.0 2.0 0.00 0.00 0.00 99 1013.6
20260508100911 43 356 0.0 2.0 0.00 0.00 0.00 99 1013.6
20260508100411 43 8 0.0 2.0 0.00 0.00 0.00 99 1013.7
20260508095913 43 349 0.0 1.0 0.00 0.00 0.00 99 1013.6
20260508095413 43 0 0.0 2.0 0.00 0.00 0.00 99 1013.6
20260508094912 43 339 1.0 2.0 0.00 0.00 0.00 99 1013.5
20260508094411 43 350 1.0 2.0 0.00 0.00 0.00 99 1013.6
20260508093913 44 0 0.0 1.0 0.00 0.00 0.00 99 1013.6
20260508093411 44 28 0.0 2.0 0.00 0.00 0.00 99 1013.5
20260508092913 43 0 0.0 2.0 0.00 0.00 0.00 99 1013.5
20260508092412 43 337 0.0 2.0 0.00 0.00 0.00 99 1013.5
20260508091913 44 331 0.0 1.0 0.00 0.00 0.00 99 1013.5
20260508091413 44 0 0.0 1.0 0.00 0.00 0.00 99 1013.5
20260508090911 44 321 0.0 2.0 0.00 0.00 0.00 99 1013.5
20260508090413 44 324 0.0 1.0 0.00 0.00 0.00 99 1013.5
20260508085914 44 350 0.0 2.0 0.00 0.00 0.00 99 1013.6
20260508085412 44 332 1.0 2.0 0.00 0.00 0.00 99 1013.7
20260508084913 44 347 0.0 2.0 0.00 0.00 0.00 99 1013.7
20260508084412 44 353 1.0 2.0 0.00 0.00 0.00 99 1013.6
20260508083912 44 0 0.0 1.0 0.00 0.00 0.00 99 1013.6
20260508083411 44 354 1.0 2.0 0.00 0.00 0.00 100 1013.7
20260508082913 44 358 0.0 1.0 0.00 0.00 0.00 100 1013.7
20260508082413 44 340 1.0 2.0 0.00 0.00 0.00 100 1013.8
20260508081911 44 355 1.0 2.0 0.00 0.00 0.00 100 1013.9
20260508081413 44 347 0.0 2.0 0.00 0.00 0.00 100 1014.0
20260508080911 44 357 2.0 2.0 0.00 0.00 0.00 100 1014.0
20260508080413 44 0 1.0 2.0 0.00 0.00 0.00 100 1014.0
20260508075912 44 352 1.0 2.0 0.00 0.00 0.00 100 1014.1
20260508075413 44 356 0.0 2.0 0.00 0.00 0.00 99 1014.1
20260508074913 44 0 1.0 2.0 0.00 0.00 0.00 99 1014.2
20260508074414 44 354 2.0 2.0 0.00 0.00 0.00 99 1014.2
20260508073911 44 355 2.0 2.0 0.00 0.00 0.00 99 1014.1
20260508073412 44 348 2.0 2.0 0.00 0.00 0.00 99 1014.2
20260508072911 45 0 0.0 1.0 0.00 0.00 0.00 99 1014.5
20260508072412 45 0 0.0 0.0 0.00 0.00 0.00 99 1014.5
20260508071911 45 0 0.0 1.0 0.00 0.00 0.00 99 1014.3
20260508071413 45 340 0.0 2.0 0.00 0.00 0.00 99 1014.5
20260508070915 45 347 1.0 2.0 0.00 0.00 0.00 99 1014.6
20260508070413 45 354 1.0 2.0 0.00 0.00 0.00 99 1014.6
20260508065911 45 0 0.0 1.0 0.00 0.00 0.00 99 1014.8
20260508065412 44 332 0.0 2.0 0.00 0.00 0.00 98 1014.8
20260508064913 45 358 1.0 2.0 0.00 0.00 0.00 98 1014.8
20260508064411 44 0 0.0 4.0 0.00 0.00 0.00 98 1014.8
20260508063912 45 343 1.0 4.0 0.00 0.00 0.00 98 1014.7
20260508063420 45 0 0.0 2.0 0.00 0.00 0.00 97 1014.8
20260508062914 45 0 0.0 0.0 0.00 0.00 0.00 97 1014.9
20260508062411 46 0 0.0 2.0 0.00 0.00 0.00 97 1014.9
20260508061913 46 0 0.0 2.0 0.00 0.00 0.00 97 1014.9
20260508061412 46 0 0.0 2.0 0.00 0.00 0.00 97 1015.0
20260508060912 46 0 0.0 2.0 0.00 0.00 0.00 97 1015.0
20260508060414 46 345 2.0 2.0 0.00 0.00 0.00 97 1015.0
20260508055913 46 0 0.0 2.0 0.00 0.00 0.00 96 1015.2
20260508055413 46 6 1.0 2.0 0.00 0.00 0.00 96 1015.1
20260508054911 46 332 0.0 2.0 0.00 0.00 0.00 97 1015.1
20260508054411 46 348 2.0 2.0 0.00 0.00 0.00 96 1015.1
20260508053911 46 0 0.0 0.0 0.00 0.00 0.00 96 1015.2
20260508053414 46 0 0.0 0.0 0.00 0.00 0.00 95 1015.1
20260508052911 46 0 0.0 1.0 0.00 0.00 0.00 95 1015.1
20260508052411 47 0 0.0 1.0 0.00 0.00 0.00 95 1015.2
20260508051911 47 308 0.0 1.0 0.00 0.00 0.00 95 1015.2
20260508051417 46 25 0.0 2.0 0.00 0.00 0.00 94 1015.3
20260508050911 47 39 1.0 2.0 0.00 0.00 0.00 94 1015.3
20260508050412 46 341 0.0 2.0 0.00 0.00 0.00 94 1015.3
20260508045911 46 341 0.0 2.0 0.00 0.00 0.00 92 1015.4
20260508045411 47 165 0.0 1.0 0.00 0.00 0.00 93 1015.5
20260508044913 47 0 0.0 1.0 0.00 0.00 0.00 92 1015.4
20260508044411 47 346 0.0 4.0 0.00 0.00 0.00 91 1015.4
20260508043912 47 0 0.0 1.0 0.00 0.00 0.00 91 1015.5
20260508043412 47 235 0.0 2.0 0.00 0.00 0.00 90 1015.4
20260508042911 47 2 0.0 2.0 0.00 0.00 0.00 90 1015.4
20260508042411 47 357 2.0 2.0 0.00 0.00 0.00 89 1015.5
20260508041911 47 324 0.0 2.0 0.00 0.00 0.00 89 1015.5
20260508041412 47 343 1.0 3.0 0.00 0.00 0.00 90 1015.5
20260508040911 48 0 0.0 2.0 0.00 0.00 0.00 90 1015.5
20260508040414 48 277 0.0 2.0 0.00 0.00 0.00 90 1015.5
20260508035911 48 156 1.0 2.0 0.00 0.00 0.00 90 1015.5
20260508035412 48 0 0.0 2.0 0.00 0.00 0.00 87 1015.5
20260508034912 48 357 0.0 2.0 0.00 0.00 0.00 87 1015.4
20260508034411 49 350 1.0 2.0 0.00 0.00 0.00 86 1015.5
20260508033913 49 0 0.0 1.0 0.00 0.00 0.00 86 1015.6
20260508033414 49 0 0.0 2.0 0.00 0.00 0.00 86 1015.6
20260508032913 49 347 1.0 2.0 0.00 0.00 0.00 86 1015.5
20260508032413 49 345 1.0 3.0 0.00 0.00 0.00 85 1015.5
20260508031912 49 346 0.0 5.0 0.00 0.00 0.00 86 1015.5
20260508031411 49 0 0.0 1.0 0.00 0.00 0.00 84 1015.6
20260508030914 50 353 0.0 2.0 0.00 0.00 0.00 84 1015.5
20260508030413 50 347 0.0 2.0 0.00 0.00 0.00 84 1015.5
20260508025911 50 346 1.0 1.0 0.00 0.00 0.00 83 1015.5
20260508025411 50 0 0.0 0.0 0.00 0.00 0.00 84 1015.5
20260508024911 50 0 0.0 1.0 0.00 0.00 0.00 82 1015.5
20260508024412 51 348 0.0 2.0 0.00 0.00 0.00 82 1015.4
20260508023913 51 339 1.0 2.0 0.00 0.00 0.00 82 1015.4
20260508023412 51 344 1.0 2.0 0.00 0.00 0.00 82 1015.3
20260508022912 51 349 2.0 2.0 0.00 0.00 0.00 81 1015.2
20260508022416 51 336 1.0 2.0 0.00 0.00 0.00 81 1015.2
20260508021911 51 343 2.0 3.0 0.00 0.00 0.00 81 1015.1
20260508021411 51 348 2.0 2.0 0.00 0.00 0.00 80 1015.0
20260508020913 52 345 2.0 2.0 0.00 0.00 0.00 79 1015.0
20260508020412 52 0 0.0 0.0 0.00 0.00 0.00 80 1015.0
20260508015911 52 0 0.0 2.0 0.00 0.00 0.00 80 1014.9
20260508015412 52 354 0.0 2.0 0.00 0.00 0.00 80 1014.8
20260508014911 53 352 2.0 2.0 0.00 0.00 0.00 79 1014.7
20260508014411 53 342 1.0 2.0 0.00 0.00 0.00 79 1014.7
20260508013911 53 352 2.0 2.0 0.00 0.00 0.00 78 1014.7
20260508013412 54 350 2.0 2.0 0.00 0.00 0.00 77 1014.6
20260508012912 55 350 1.0 2.0 0.00 0.00 0.00 76 1014.5
20260508012412 55 337 1.0 2.0 0.00 0.00 0.00 77 1014.5
20260508011911 55 350 2.0 2.0 0.00 0.00 0.00 75 1014.5
20260508011411 56 344 0.0 2.0 0.00 0.00 0.00 75 1014.5
20260508010911 56 353 1.0 2.0 0.00 0.00 0.00 74 1014.5
20260508010412 57 348 2.0 2.0 0.00 0.00 0.00 73 1014.5
20260508005911 58 348 2.0 2.0 0.00 0.00 0.00 72 1014.5
20260508005412 59 353 2.0 2.0 0.00 0.00 0.00 70 1014.5
20260508004911 60 348 1.0 3.0 0.00 0.00 0.00 69 1014.5
20260508004412 62 349 1.0 2.0 0.00 0.00 0.00 66 1014.5
20260508003911 63 245 0.0 2.0 0.00 0.00 0.00 63 1014.5
20260508003412 64 344 1.0 2.0 0.00 0.00 0.00 60 1014.5
20260508002911 65 16 0.0 2.0 0.00 0.00 0.00 57 1014.5
20260508002412 67 352 2.0 4.0 0.00 0.00 0.00 54 1014.3
20260508001912 68 331 0.0 2.0 0.00 0.00 0.00 52 1014.5
20260508001411 68 0 0.0 7.0 0.00 0.00 0.00 47 1014.5
20260508000912 68 31 2.0 7.0 0.00 0.00 0.00 45 1014.3
20260508000412 68 273 0.0 4.0 0.00 0.00 0.00 45 1014.3
20260507235911 68 326 1.0 4.0 0.00 0.00 0.00 45 1014.3
20260507235411 68 317 2.0 5.0 0.00 0.00 0.00 45 1014.3
20260507234911 68 330 1.0 9.0 0.00 0.00 0.00 46 1014.3
20260507234412 69 340 4.0 9.0 0.00 0.00 0.00 45 1014.3
20260507233911 69 319 3.0 4.0 0.00 0.00 0.00 45 1014.3
20260507224415 70 253 4.0 6.0 0.00 0.00 0.00 42 1014.7
20260507210912 71 213 2.0 5.0 0.00 0.00 0.00 39 1015.2
20260507210412 71 342 2.0 5.0 0.00 0.00 0.00 38 1015.2
20260507204913 72 268 2.0 4.0 0.00 0.00 0.00 39 1015.9
20260507203913 71 30 2.0 5.0 0.00 0.00 0.00 37 1015.6
20260507202911 71 330 3.0 9.0 0.00 0.00 0.00 39 1015.9
20260507202411 71 27 2.0 8.0 0.00 0.00 0.00 38 1015.8
20260507201913 71 321 4.0 8.0 0.00 0.00 0.00 37 1015.8
20260507201412 70 211 1.0 5.0 0.00 0.00 0.00 38 1015.8
20260507195912 71 343 3.0 11.0 0.00 0.00 0.00 38 1016.2
20260507195412 71 345 5.0 8.0 0.00 0.00 0.00 38 1016.0
20260507192414 70 322 5.0 12.0 0.00 0.00 0.00 37 1016.3
20260507191914 70 125 2.0 7.0 0.00 0.00 0.00 35 1016.3
20260507191411 70 15 4.0 10.0 0.00 0.00 0.00 36 1016.7
20260507190911 71 340 7.0 9.0 0.00 0.00 0.00 37 1016.4
20260507190412 70 346 4.0 7.0 0.00 0.00 0.00 36 1016.5
20260507185911 71 334 3.0 5.0 0.00 0.00 0.00 36 1016.6
20260507185412 69 232 2.0 7.0 0.00 0.00 0.00 38 1016.5
20260507184911 67 148 0.0 9.0 0.00 0.00 0.00 39 1016.5
20260507184412 67 193 4.0 10.0 0.00 0.00 0.00 40 1016.7
20260507183912 68 144 2.0 6.0 0.00 0.00 0.00 38 1016.5
20260507182413 68 306 1.0 8.0 0.00 0.00 0.00 37 1017.1
20260507181914 68 328 5.0 8.0 0.00 0.00 0.00 38 1017.0
20260507180913 68 351 2.0 4.0 0.00 0.00 0.00 38 1016.9
20260507174912 65 152 4.0 9.0 0.00 0.00 0.00 42 1017.5
20260507171913 65 201 5.0 8.0 0.00 0.00 0.00 41 1018.1
20260507170913 65 152 6.0 10.0 0.00 0.00 0.00 41 1018.0
20260507164413 67 133 2.0 7.0 0.00 0.00 0.00 39 1018.4
20260507163914 65 41 1.0 7.0 0.00 0.00 0.00 40 1018.5
20260507163414 64 248 3.0 7.0 0.00 0.00 0.00 40 1018.6
20260507162913 62 220 1.0 7.0 0.00 0.00 0.00 45 1018.7
20260507161914 63 141 4.0 9.0 0.00 0.00 0.00 43 1018.7
20260507161413 63 313 2.0 7.0 0.00 0.00 0.00 42 1018.8
20260507160914 63 150 2.0 9.0 0.00 0.00 0.00 42 1018.9
20260507160413 63 156 3.0 8.0 0.00 0.00 0.00 46 1019.0
20260507155912 64 221 3.0 6.0 0.00 0.00 0.00 42 1019.0
20260507155414 64 144 4.0 6.0 0.00 0.00 0.00 43 1019.0
20260507154916 62 143 1.0 5.0 0.00 0.00 0.00 47 1019.0
20260507154413 62 155 4.0 9.0 0.00 0.00 0.00 48 1019.0
20260507153913 61 163 2.0 8.0 0.00 0.00 0.00 46 1019.0
20260507153414 61 229 3.0 9.0 0.00 0.00 0.00 51 1019.0
20260507152914 61 179 4.0 9.0 0.00 0.00 0.00 47 1019.0
20260507152414 60 250 2.0 8.0 0.00 0.00 0.00 50 1019.0
20260507151914 59 150 7.0 9.0 0.00 0.00 0.00 51 1019.1
20260507150914 59 152 6.0 9.0 0.00 0.00 0.00 48 1019.0
20260507150413 59 176 5.0 9.0 0.00 0.00 0.00 51 1019.1
20260507145912 58 127 1.0 8.0 0.00 0.00 0.00 52 1019.1
20260507145414 58 157 4.0 8.0 0.00 0.00 0.00 49 1019.1
20260507144913 58 173 3.0 7.0 0.00 0.00 0.00 51 1019.2
20260507144414 58 297 2.0 7.0 0.00 0.00 0.00 49 1019.2
20260507143913 57 158 3.0 8.0 0.00 0.00 0.00 52 1019.3
20260507143413 57 172 4.0 8.0 0.00 0.00 0.00 54 1019.2
20260507142915 57 146 4.0 8.0 0.00 0.00 0.00 56 1019.2
20260507142414 56 174 4.0 7.0 0.00 0.00 0.00 58 1019.2
20260507141914 56 153 5.0 7.0 0.00 0.00 0.00 59 1019.1
20260507141412 57 304 2.0 5.0 0.00 0.00 0.00 60 1019.1
20260507140914 56 201 3.0 5.0 0.00 0.00 0.00 61 1019.2
20260507140413 56 199 2.0 4.0 0.00 0.00 0.00 61 1019.3
20260507135911 56 24 1.0 4.0 0.00 0.00 0.00 63 1019.3
20260507135414 55 310 1.0 4.0 0.00 0.00 0.00 63 1019.3
20260507134913 53 351 2.0 4.0 0.00 0.00 0.00 66 1019.3
20260507134415 53 196 2.0 4.0 0.00 0.00 0.00 67 1019.3
20260507133913 53 228 2.0 4.0 0.00 0.00 0.00 67 1019.3
20260507133413 52 155 2.0 4.0 0.00 0.00 0.00 67 1019.3
20260507132913 52 207 2.0 5.0 0.00 0.00 0.00 69 1019.3
20260507132414 52 167 2.0 4.0 0.00 0.00 0.00 69 1019.3
20260507131913 52 214 2.0 4.0 0.00 0.00 0.00 70 1019.2
20260507131414 51 103 2.0 4.0 0.00 0.00 0.00 71 1019.1
20260507130914 51 164 2.0 5.0 0.00 0.00 0.00 72 1019.0
20260507130414 51 145 2.0 3.0 0.00 0.00 0.00 72 1019.1
20260507125914 50 137 1.0 4.0 0.00 0.00 0.00 73 1019.1
20260507125414 50 133 1.0 3.0 0.00 0.00 0.00 74 1019.1
20260507124915 50 136 1.0 2.0 0.00 0.00 0.00 74 1019.1
20260507124413 49 0 0.0 2.0 0.00 0.00 0.00 74 1019.0
20260507123914 48 101 0.0 2.0 0.00 0.00 0.00 78 1019.0
20260507123413 47 0 0.0 3.0 0.00 0.00 0.00 82 1019.1
20260507122913 47 147 2.0 3.0 0.00 0.00 0.00 81 1019.0
20260507122414 46 0 0.0 2.0 0.00 0.00 0.00 81 1019.0
20260507121911 46 0 0.0 2.0 0.00 0.00 0.00 83 1019.0
20260507121412 45 140 0.0 2.0 0.00 0.00 0.00 85 1019.0
20260507120911 44 0 0.0 1.0 0.00 0.00 0.00 86 1019.0
20260507120414 43 118 0.0 2.0 0.00 0.00 0.00 89 1018.9
20260507115912 42 147 1.0 2.0 0.00 0.00 0.00 89 1018.8
20260507115413 41 0 0.0 0.0 0.00 0.00 0.00 90 1019.0
20260507114913 41 0 0.0 1.0 0.00 0.00 0.00 92 1019.0
20260507114412 40 345 0.0 2.0 0.00 0.00 0.00 94 1018.9
20260507113912 40 0 0.0 0.0 0.00 0.00 0.00 94 1019.0
20260507113414 40 0 0.0 2.0 0.00 0.00 0.00 94 1018.9
20260507112914 40 339 1.0 2.0 0.00 0.00 0.00 94 1018.8
20260507112412 40 334 1.0 2.0 0.00 0.00 0.00 94 1018.7
20260507111913 40 336 0.0 2.0 0.00 0.00 0.00 93 1018.7
20260507111412 40 355 1.0 2.0 0.00 0.00 0.00 94 1018.7
20260507110913 40 0 0.0 0.0 0.00 0.00 0.00 94 1018.6
20260507110412 40 0 0.0 0.0 0.00 0.00 0.00 94 1018.5
20260507105911 40 0 0.0 2.0 0.00 0.00 0.00 94 1018.4
20260507105413 40 19 0.0 2.0 0.00 0.00 0.00 95 1018.3